Location: Hilton Head Island
(32.2163°N, 80.7526°W)
Time: 20:15:45
(UTC-05:00)

Transit 2A Rocket - All Passes

Search period start: 06 February 2026 00:00
Search period end: 16 February 2026 00:00
Orbit: 581 x 902 km, 66.7° (Epoch: 6 February)

Date Brightness Start Highest point End Pass type
(mag) Time Alt. Az. Time Alt. Az. Time Alt. Az.
6 Feb - 03:10:13 10° NNE 03:12:53 14° NE 03:15:26 10° ENE night (unlit)
6 Feb - 04:50:35 10° NNW 04:55:57 73° WSW 05:00:47 10° SSE visible
6 Feb - 17:35:50 10° SSE 17:40:30 25° ESE 17:45:17 10° NE daylight
6 Feb - 19:17:01 10° SW 19:22:36 42° WNW 19:28:20 10° NNE visible
7 Feb - 04:05:01 10° NNW 04:10:20 56° ENE 04:15:09 10° SE visible
7 Feb - 05:49:37 10° WNW 05:51:59 13° WSW 05:54:15 10° SW visible
7 Feb - 16:52:54 10° SE 16:55:15 12° ESE 16:57:38 10° ENE daylight
7 Feb - 18:31:01 10° SSW 18:36:53 78° WNW 18:42:57 10° NNE visible
7 Feb - 20:18:06 10° WNW 20:20:14 12° NW 20:22:24 10° NNW visible
8 Feb - 03:19:50 10° N 03:24:32 29° NE 03:28:51 10° ESE night (unlit)
8 Feb - 05:02:20 10° NW 05:06:46 28° WSW 05:10:51 10° SSW visible
8 Feb - 17:45:36 10° S 17:51:19 58° ESE 17:57:14 10° NE daylight
8 Feb - 19:29:44 10° W 19:34:06 21° NW 19:38:33 10° N visible
9 Feb - 02:35:14 10° NNE 02:38:31 16° NE 02:41:38 10° E night (unlit)
9 Feb - 04:16:10 10° NNW 04:21:23 58° WSW 04:26:07 10° S night (unlit)
9 Feb - 17:00:53 10° SSE 17:05:55 30° ESE 17:11:05 10° NE daylight
9 Feb - 18:42:47 10° WSW 18:48:10 36° WNW 18:53:42 10° N visible
10 Feb - 03:30:29 10° NNW 03:35:50 69° ENE 03:40:41 10° SSE night (unlit)
10 Feb - 05:17:10 10° W 05:17:19 10° W 05:17:28 10° WSW night (unlit)
10 Feb - 16:17:16 10° SE 16:20:38 16° ESE 16:24:02 10° ENE daylight
10 Feb - 17:56:33 10° SW 18:02:24 65° WNW 18:08:26 10° NNE daylight
11 Feb - 02:45:11 10° N 02:50:05 34° ENE 02:54:34 10° ESE night (unlit)
11 Feb - 04:28:10 10° NW 04:32:08 22° WSW 04:35:50 10° SSW night (unlit)
11 Feb - 17:10:57 10° SSW 17:16:48 70° ESE 17:22:49 10° NNE daylight
11 Feb - 18:55:49 10° W 18:59:45 18° NW 19:03:43 10° N visible
12 Feb - 02:00:22 10° N 02:04:07 19° NE 02:07:39 10° E night (unlit)
12 Feb - 03:41:46 10° NW 03:46:49 46° WSW 03:51:23 10° S night (unlit)
12 Feb - 16:26:01 10° S 16:31:20 37° ESE 16:36:48 10° NE daylight
12 Feb - 18:08:34 10° WSW 18:13:45 31° WNW 18:19:02 10° N daylight
13 Feb - 01:17:27 10° NE 01:17:58 10° NE 01:18:30 10° NE night (unlit)
13 Feb - 02:55:58 10° NNW 03:01:19 84° ENE 03:06:08 10° SSE night (unlit)
13 Feb - 15:41:58 10° SSE 15:46:00 19° ESE 15:50:07 10° ENE daylight
13 Feb - 17:22:09 10° SW 17:27:55 54° WNW 17:33:52 10° NNE daylight
14 Feb - 02:10:33 10° NNW 02:15:37 41° ENE 02:20:12 10° SE night (unlit)
14 Feb - 03:54:06 10° WNW 03:57:28 18° WSW 04:00:40 10° SW night (unlit)
14 Feb - 16:36:21 10° SSW 16:42:15 83° ESE 16:48:20 10° NNE daylight
14 Feb - 18:22:01 10° W 18:25:22 15° NW 18:28:45 10° NNW daylight
15 Feb - 01:25:34 10° N 01:29:42 22° NE 01:33:33 10° ESE night (unlit)
15 Feb - 03:07:25 10° NW 03:12:12 37° WSW 03:16:34 10° S night (unlit)
15 Feb - 15:51:12 10° S 15:56:45 44° ESE 16:02:27 10° NE daylight
15 Feb - 17:34:24 10° WSW 17:39:19 26° NW 17:44:17 10° N daylight
